CZ-2D DEB, 35273

Orbit data source: Space-Track

CZ-2D DEB, 35273 is space debris in SSO originally from a launch on Tue, 05 Jul 2005 UTC launched from the Jiuquan Satellite Launch Center, China (JSC). Debris objects in space refer to the collection of defunct objects orbiting the Earth. Examples of debris include non-operational satellites, rocket bodies, and fragments generated from explosions, collisions, or faulty payload assembly.

Not visible in the next 10 days
Identifier
35273, 2005-024M
Orbit
SSO
Country
Flag of CNCN / PRC
Related business
Manufacturer
Unknown
Mission
Spacecraft
Bus & Motor
Unknown
Mass
Unknown
Launch date (UTC)
2005-07-05 (20 years ago)
Launch vehicle
Unknown
Launch site
Jiuquan Satellite Launch Center, China (JSC)
Object type
Payload
Rocket body
Debris
Shape & HBR
Unknown shape, 0.1 m
Radar Cross Section
Small (<0.1 m²)

Expand to show TLE details & history
Last TLE update: 15 hours ago

TLE from 15 hours ago
0 CZ-2D DEB
1 35273U 05024M   25290.88483392  .00134267  00000-0  90157-3 0  9992
2 35273  97.1604 324.1193 0002576 222.6347 137.4719 15.74810158140454
Epoch: 2025-10-17T21:14Z
TLE epoch observation values (Epoch: 2025-10-17T21:14:09.650Z)
Latitude
-0.00001°
Longitude
-21.0447°
Altitude
349.62 km
Speed
7.698 km/s
True Right ascension
21h 36m 28s
True Declination
0° 00' 00"
Sunlit
Object was in full shadow at epoch
Visualization orbit readout
Latitude
Unknown
Longitude
Unknown
Altitude
Unknown
Speed
Unknown
Apparent Right ascension
Unknown
Apparent Declination
Unknown
Sunlit
N/A
Visualization observer readout
Local Sidereal Time
07:09:23
Azimuth
Unknown
Elevation
Unknown
Doppler factor
Unknown
Orbital elements
Apogee altitude
343.785 km
Perigee altitude
340.323 km
Semi-major axis
6,720.191 km
Eccentricity
0.00026
Inclination
97.1604°
RAAN
324.1193°
Arg. of periapsis
222.6347°
True anomaly
137.49185°
Mean anomaly
137.4719°
Eccentric anomaly
137.48187°
Mean motion
3.93977 °/min
Orbital period
91.38 mins
BSTAR
0.00090157
Loading maneuver chart data...
Computing Atmospheric mass density...
Loading historical data...
Loading historical data...
Loading historical data...
Loading historical data...
Loading historical data...
Loading historical data...
Loading historical data...

Documentation

Showing up to 5 results
|